Weather History for Decimomannu, Italy

Change the Weather History Date:

Sunday, December 30, 2012

  Actual Average Record
Temperature  
Mean Temperature 46 °F -  
Max Temperature 59 °F 57 °F 62 °F (2001)
Min Temperature 33 °F 40 °F 33 °F (2005)
Degree Days  
Heating Degree Days 19    
Moisture  
Dew Point 42 °F    
Average Humidity 82    
Maximum Humidity 88    
Minimum Humidity 68    
Precipitation  
Precipitation 0.00 in 0.06 in - ()
Sea Level Pressure  
Sea Level Pressure 30.23 in    
Wind  
Wind Speed 4 mph ()    
Max Wind Speed 10 mph    
Max Gust Speed -    
Visibility 6.9 miles    
Events      
Averages and records for this station are not official NWS values.
T = Trace of Precipitation, MM = Missing Value Source: Averaged Metar Reports

Daily Weather History Graph

Daily Weather History Graph

Search for Another Location

Airport:

Trip Planner

Search our weather history database for the weather conditions in past years. The results will help you decide how hot, cold, wet, or windy it might be!

Date:

Astronomy

Dec. 30, 2012 Rise Set
Actual Time 7:43 AM CET 5:10 PM CET
Civil Twilight 7:13 AM CET 5:40 PM CET
Nautical Twilight 6:40 AM CET 6:13 PM CET
Astronomical Twilight 6:07 AM CET 6:46 PM CET
Moon 7:24 PM CET (12/30) 8:44 AM CET (12/30)
Length of Visible Light 10h 26m
Length of Day
9h 26m
Waning Gibbous, 96% of the Moon is Illuminated
Dec 30
Waning Gibbous
Jan 5
Last Quarter
Jan 11
New
Jan 19
First Quarter
Jan 27
Full

Hourly Weather History & Observations

Time (CET) Temp. Windchill Dew Point Humidity Pressure Visibility Wind Dir Wind Speed Gust Speed Precip Events Conditions
1:00 AM 38 °F - 34 °F 79% 30.24 in 7 mi NNW 3.5 mph - -   Scattered Clouds
1:55 AM 37.4 °F 34.9 °F 32.0 °F 81% 30.21 in 6.2 mi NNW 3.5 mph - N/A   Scattered Clouds
2:55 AM 37.4 °F 34.9 °F 32.0 °F 81% 30.21 in 6.2 mi North 3.5 mph - N/A   Partly Cloudy
3:55 AM 35.6 °F 31.7 °F 32.0 °F 87% 30.21 in 6.2 mi WNW 4.6 mph - N/A   Partly Cloudy
4:00 AM 35 °F - 31 °F 81% 30.24 in 6 mi WNW 4.6 mph - -   Scattered Clouds
4:55 AM 35.6 °F - 32.0 °F 87% 30.21 in 6.2 mi NNW 2.3 mph - N/A   Partly Cloudy
5:55 AM 35.6 °F - 30.2 °F 81% 30.21 in 6.2 mi North 2.3 mph - N/A   Partly Cloudy
6:55 AM 35.6 °F 30.7 °F 30.2 °F 81% 30.21 in 6.2 mi North 5.8 mph - N/A   Scattered Clouds
7:00 AM 35 °F - 31 °F 78% 30.24 in 6 mi North 5.8 mph - -   Partly Cloudy
7:55 AM 33.8 °F - 30.2 °F 87% 30.21 in 6.2 mi NNW 2.3 mph - N/A   Scattered Clouds
8:55 AM 37.4 °F - 33.8 °F 87% 30.24 in 6.2 mi North 1.2 mph - N/A   Partly Cloudy
9:55 AM 42.8 °F - 39.2 °F 87% 30.24 in 6.2 mi NNW 1.2 mph - N/A   Partly Cloudy
10:00 AM 43 °F - 38 °F 77% 30.27 in 9 mi NNW 1.2 mph - -   Partly Cloudy
10:55 AM 50.0 °F - 44.6 °F 82% 30.24 in 6.2 mi NNW 1.2 mph - N/A   Scattered Clouds
11:55 AM 55.4 °F - 48.2 °F 77% 30.24 in 6.2 mi NNW 2.3 mph - N/A   Partly Cloudy
12:55 PM 59.0 °F - 50.0 °F 72% 30.21 in 6.2 mi North 3.5 mph - N/A   Scattered Clouds
1:00 PM 58 °F - 50 °F 68% 30.24 in 9 mi North 3.5 mph - -   Partly Cloudy
1:55 PM 57.2 °F - 51.8 °F 82% 30.21 in 6.2 mi WNW 3.5 mph - N/A   Scattered Clouds
2:55 PM 59.0 °F - 51.8 °F 77% 30.21 in 6.2 mi NW 9.2 mph - N/A   Scattered Clouds
3:55 PM 57.2 °F - 51.8 °F 82% 30.21 in 6.2 mi NW 6.9 mph - N/A   Scattered Clouds
4:00 PM 57 °F - 52 °F 78% 30.22 in 12 mi NW 6.9 mph - -   Partly Cloudy
4:55 PM 55.4 °F - 50.0 °F 82% 30.21 in 6.2 mi NW 6.9 mph - N/A   Scattered Clouds
5:55 PM 53.6 °F - 50.0 °F 88% 30.21 in 6.2 mi NW 6.9 mph - N/A   Partly Cloudy
6:55 PM 51.8 °F - 48.2 °F 88% 30.24 in 6.2 mi NW 6.9 mph - N/A   Partly Cloudy
7:00 PM 52 °F - 49 °F 85% 30.25 in 12 mi NW 6.9 mph - -   Partly Cloudy
7:55 PM 51.8 °F - 48.2 °F 88% 30.24 in 6.2 mi NW 6.9 mph - N/A   Scattered Clouds
8:55 PM 53.6 °F - 50.0 °F 88% 30.24 in 6.2 mi NW 10.4 mph - N/A   Scattered Clouds
9:55 PM 50.0 °F - 46.4 °F 87% 30.27 in 6.2 mi NW 8.1 mph - N/A   Partly Cloudy
10:00 PM 50 °F - 46 °F 81% 30.27 in 9 mi NW 8.1 mph - -   Scattered Clouds
10:55 PM 50.0 °F - 44.6 °F 82% 30.27 in 6.2 mi NW 9.2 mph - N/A   Partly Cloudy
11:55 PM 46.4 °F 45.2 °F 42.8 °F 87% 30.27 in - NNW 3.5 mph - N/A   Clear